Location: Franzen
(48.6167°N, 15.3833°E)
Time: 23:16:19
(UTC+00:00)

Transit 2A - Pass Details

Date: 08 August 2021
Orbit: 594 x 964 km, 66.7° (Epoch: 26 September)

Event Time Altitude Azimuth Distance (km) Brightness Sun altitude
Rises 06:25:49 0° 283° (WNW) 2,953 8.5 25.4°
Reaches altitude 10° 06:29:16 10° 312° (NW) 2,113 7.9 26.0°
Maximum altitude 06:31:35 13° 341° (NNW) 1,948 8.0 26.4°
Drops below altitude 10° 06:33:59 10° 9° (N) 2,222 8.5 26.8°
Sets 06:37:49 0° 36° (NE) 3,243 9.6 27.4°
